Home   Weather   Ibagué   Past weeks

Flag for Colombia Past Weather in Ibagué, Colombia — Yesterday and Last 2 Weeks

Now
68 °F

Fog.


Feels Like: 68 °F
Forecast: 56 / 67 °F
Wind: 2 mph from North

Location: Pereira / Matecana

Current Time: Jan 16, 2017 at 10:05:58 am

Latest Report: Jan 16, 2017 at 9:00 am


Visibility: 2 mi

Pressure: 30.09 "Hg (25.92 "Hg at 1281m altitude)

Humidity: 94%

Dew Point: 66 °F

Location of IbaguéLocation

Past Weather in Ibagué — Graph

°F

Ibagué Temperature Yesterday

Maximum temperature yesterday: 79 °F (at 2:00 pm)
Minimum temperature yesterday: 64 °F (at 4:00 am)
Average temperature yesterday: 70 °F

High & Low Weather Summary for the Past Weeks

 TemperatureHumidityPressure
High82 °F (Jan 2, 3:00 pm)100% (Jan 4, 6:00 am)30.15 "Hg (Jan 4, 6:00 am)
Low63 °F (Jan 8, 5:00 am)51% (Jan 12, 4:00 pm)29.91 "Hg (Jan 3, 3:00 pm)
Average71 °F82%30.03 "Hg
* Reported Jan 1 9:00 am — Jan 16 9:00 am, Ibagué, Weather by CustomWeather, © 2017

Note: Actual official high and low records may vary slightly from our data, if they occured in-between our weather recording intervals... More about our weather records

Advertising

Ibagué Weather History for the Previous 24 Hours

Scroll right to see more
 ConditionsComfort  
Time TempWeatherWind HumidityBarometerVisibility
9:00 am
Mon, Jan 16
68 °FFog.2 mph94%30.09 "Hg2 mi
8:00 am66 °FFog.2 mph94%30.08 "Hg2 mi
7:00 am64 °FFog.3 mph100%30.06 "Hg2 mi
6:00 am64 °FFog.3 mph100%30.03 "Hg1 mi
5:00 am64 °FFog.3 mph100%30.02 "Hg2 mi
11:00 pm
Sun, Jan 15
68 °FPassing clouds.3 mph94%30.04 "HgN/A
10:00 pm68 °FPassing clouds.2 mph94%30.03 "HgN/A
9:00 pm68 °FPassing clouds.2 mph94%30.01 "HgN/A
8:00 pm70 °FPassing clouds.2 mph83%29.98 "Hg6 mi
7:00 pm72 °FPassing clouds.7 mph83%29.96 "HgN/A
6:00 pm72 °FScattered clouds.2 mph83%29.95 "HgN/A
5:00 pm73 °FScattered showers. Scattered clouds.6 mph78%29.93 "HgN/A
4:00 pm77 °FScattered clouds.8 mph69%29.93 "HgN/A
3:00 pm77 °FScattered clouds.3 mph69%29.95 "HgN/A
2:00 pm79 °FScattered clouds.6 mph65%29.97 "HgN/A
1:00 pm77 °FBroken clouds.6 mph69%30.01 "HgN/A
12:00 pm75 °FBroken clouds.5 mph74%30.04 "HgN/A
11:00 am73 °FBroken clouds.2 mph74%30.06 "HgN/A
10:00 am72 °FBroken clouds.5 mph83%30.09 "HgN/A
Weather by CustomWeather, © 2017

See weather overviewHow to use our weather pages